EN

Hourly Weather Dzieraznia

Today, 25 October, Sunday

Time Temperature Precipitation Wind Pressure Humidity
00:00 +11°C° 0 mm 1 mps 741 mmHg 92%
01:00 +10°C° 0 mm 0 mps 741 mmHg 92%
02:00 +10°C° 0 mm 0 mps 741 mmHg 92%
03:00 +10°C° 0 mm 1 mps 740 mmHg 93%
04:00 +10°C° 0 mm 1 mps 740 mmHg 93%
05:00 +10°C° 0 mm 1 mps 740 mmHg 94%
06:00 +10°C° 0 mm 1 mps 740 mmHg 94%
07:00 +10°C° 0 mm 1 mps 740 mmHg 94%
08:00 +12°C° 0 mm 2 mps 740 mmHg 89%
09:00 +13°C° 0 mm 2 mps 740 mmHg 84%
10:00 +14°C° 0 mm 3 mps 740 mmHg 79%
11:00 +14°C° 0 mm 3 mps 739 mmHg 75%
12:00 +16°C° 0 mm 3 mps 739 mmHg 72%
13:00 +15°C° 0 mm 4 mps 739 mmHg 69%
14:00 +16°C° 0 mm 3 mps 739 mmHg 72%
15:00 +14°C° 0 mm 3 mps 738 mmHg 76%
16:00 +13°C° 0 mm 3 mps 738 mmHg 79%
17:00 +12°C° 0 mm 3 mps 738 mmHg 82%
18:00 +12°C° 0 mm 3 mps 738 mmHg 86%
19:00 +11°C° 0 mm 3 mps 738 mmHg 89%
20:00 +11°C° 0 mm 3 mps 738 mmHg 90%
21:00 +11°C° 0 mm 3 mps 737 mmHg 92%
22:00 +11°C° 0 mm 3 mps 737 mmHg 93%
23:00 +11°C° 0 mm 3 mps 737 mmHg 93%

Tomorrow, 26 October, Monday

Time Temperature Precipitation Wind Pressure Humidity
00:00 +12°C° 0 mm 2 mps 737 mmHg 93%
01:00 +12°C° 0 mm 2 mps 737 mmHg 92%
02:00 +10°C° 0 mm 2 mps 736 mmHg 93%
03:00 +10°C° 0 mm 2 mps 736 mmHg 93%
04:00 +9°C° 0 mm 2 mps 736 mmHg 93%
05:00 +9°C° 0 mm 2 mps 736 mmHg 93%
06:00 +9°C° 0 mm 2 mps 736 mmHg 93%
07:00 +9°C° 0 mm 2 mps 736 mmHg 93%
08:00 +12°C° 0 mm 2 mps 735 mmHg 85%
09:00 +13°C° 0 mm 3 mps 735 mmHg 78%
10:00 +16°C° 0 mm 3 mps 735 mmHg 71%
11:00 +17°C° 0 mm 3 mps 735 mmHg 67%
12:00 +18°C° 0 mm 3 mps 735 mmHg 63%
13:00 +19°C° 0 mm 3 mps 735 mmHg 60%
14:00 +18°C° 0 mm 3 mps 735 mmHg 63%
15:00 +17°C° 0 mm 3 mps 735 mmHg 67%
16:00 +16°C° 0 mm 2 mps 734 mmHg 70%
17:00 +14°C° 0 mm 3 mps 734 mmHg 72%
18:00 +14°C° 0 mm 3 mps 735 mmHg 74%
19:00 +14°C° 0 mm 4 mps 735 mmHg 76%
20:00 +13°C° 0 mm 3 mps 735 mmHg 77%
21:00 +13°C° 0 mm 3 mps 735 mmHg 78%
22:00 +13°C° 0 mm 3 mps 735 mmHg 79%
23:00 +13°C° 0 mm 3 mps 735 mmHg 80%

Day after tomorrow, 27 October, Tuesday

Time Temperature Precipitation Wind Pressure Humidity
00:00 +13°C° 0 mm 3 mps 735 mmHg 82%
01:00 +13°C° 0 mm 2 mps 735 mmHg 83%
02:00 +13°C° 0 mm 2 mps 735 mmHg 85%
03:00 +12°C° 0 mm 2 mps 735 mmHg 86%
04:00 +12°C° 0 mm 2 mps 735 mmHg 87%
05:00 +12°C° 0 mm 2 mps 736 mmHg 87%
06:00 +12°C° 0 mm 2 mps 736 mmHg 87%
07:00 +11°C° 0 mm 3 mps 736 mmHg 87%
08:00 +13°C° 0 mm 3 mps 736 mmHg 80%
09:00 +14°C° 0 mm 3 mps 736 mmHg 73%
10:00 +17°C° 0 mm 3 mps 736 mmHg 66%
11:00 +18°C° 0 mm 3 mps 736 mmHg 62%
12:00 +19°C° 0 mm 3 mps 736 mmHg 58%
13:00 +20°C° 0 mm 3 mps 736 mmHg 54%
14:00 +19°C° 0 mm 3 mps 736 mmHg 59%
15:00 +18°C° 0 mm 2 mps 736 mmHg 64%
16:00 +17°C° 0 mm 2 mps 736 mmHg 69%
17:00 +16°C° 0 mm 2 mps 736 mmHg 73%
18:00 +15°C° 0 mm 2 mps 737 mmHg 76%
19:00 +14°C° 0 mm 2 mps 737 mmHg 80%
20:00 +14°C° 0 mm 2 mps 737 mmHg 80%
21:00 +13°C° 0 mm 2 mps 737 mmHg 80%
22:00 +13°C° 0 mm 2 mps 738 mmHg 80%
23:00 +13°C° 0 mm 2 mps 738 mmHg 82%

28 October, Wednesday

Time Temperature Precipitation Wind Pressure Humidity
00:00 +12°C° 0 mm 2 mps 738 mmHg 84%
01:00 +12°C° 0 mm 2 mps 738 mmHg 87%
02:00 +12°C° 0 mm 1 mps 738 mmHg 89%
03:00 +11°C° 0 mm 1 mps 739 mmHg 91%
04:00 +11°C° 0 mm 1 mps 739 mmHg 93%
05:00 +11°C° 0 mm 1 mps 739 mmHg 93%
06:00 +10°C° 0 mm 1 mps 739 mmHg 93%
07:00 +9°C° 0 mm 0 mps 739 mmHg 93%
08:00 +11°C° 0 mm 0 mps 739 mmHg 87%
09:00 +13°C° 0 mm 1 mps 740 mmHg 81%
10:00 +15°C° 0 mm 1 mps 740 mmHg 75%
11:00 +15°C° 0 mm 1 mps 740 mmHg 72%
12:00 +16°C° 0 mm 2 mps 739 mmHg 69%
13:00 +17°C° 0 mm 2 mps 739 mmHg 66%
14:00 +16°C° 0 mm 2 mps 739 mmHg 70%
15:00 +15°C° 0 mm 2 mps 739 mmHg 73%
16:00 +15°C° 0 mm 1 mps 739 mmHg 77%
17:00 +14°C° 0 mm 1 mps 739 mmHg 79%
18:00 +14°C° 0 mm 1 mps 739 mmHg 81%
19:00 +13°C° 0 mm 1 mps 739 mmHg 82%
20:00 +13°C° 0 mm 1 mps 740 mmHg 84%
21:00 +13°C° 0 mm 1 mps 740 mmHg 85%
22:00 +12°C° 0 mm 1 mps 740 mmHg 86%
23:00 +12°C° 0 mm 1 mps 740 mmHg 87%

29 October, Thursday

Time Temperature Precipitation Wind Pressure Humidity
00:00 +12°C° 0 mm 1 mps 740 mmHg 89%
01:00 +10°C° 0 mm 2 mps 740 mmHg 90%
02:00 +10°C° 0 mm 2 mps 740 mmHg 90%
03:00 +10°C° 0 mm 2 mps 740 mmHg 90%
04:00 +10°C° 0 mm 2 mps 740 mmHg 90%
05:00 +9°C° 0 mm 2 mps 740 mmHg 91%
06:00 +9°C° 0 mm 2 mps 740 mmHg 91%
07:00 +9°C° 0 mm 2 mps 741 mmHg 91%
08:00 +10°C° 0 mm 2 mps 741 mmHg 85%
09:00 +13°C° 0 mm 2 mps 741 mmHg 78%
10:00 +15°C° 0 mm 2 mps 741 mmHg 71%
11:00 +14°C° 0 mm 3 mps 741 mmHg 66%
12:00 +16°C° 0 mm 3 mps 741 mmHg 60%
13:00 +17°C° 0 mm 4 mps 741 mmHg 54%
14:00 +16°C° 0 mm 3 mps 742 mmHg 59%
15:00 +14°C° 0 mm 3 mps 742 mmHg 64%
16:00 +14°C° 0 mm 2 mps 742 mmHg 68%
17:00 +13°C° 0 mm 2 mps 742 mmHg 70%
18:00 +13°C° 0 mm 2 mps 743 mmHg 71%
19:00 +12°C° 0 mm 3 mps 743 mmHg 73%
20:00 +11°C° 0 mm 3 mps 743 mmHg 75%
21:00 +11°C° 0 mm 3 mps 744 mmHg 78%
22:00 +11°C° 0 mm 3 mps 744 mmHg 80%
23:00 +10°C° 0 mm 3 mps 744 mmHg 82%

30 October, Friday

Time Temperature Precipitation Wind Pressure Humidity
00:00 +9°C° 0 mm 3 mps 744 mmHg 83%
01:00 +9°C° 0 mm 3 mps 744 mmHg 84%
02:00 +9°C° 0 mm 3 mps 744 mmHg 84%
03:00 +9°C° 0 mm 3 mps 744 mmHg 84%
04:00 +9°C° 0 mm 3 mps 744 mmHg 84%
05:00 +9°C° 0 mm 3 mps 744 mmHg 82%
06:00 +9°C° 0 mm 3 mps 745 mmHg 81%
07:00 +9°C° 0 mm 3 mps 745 mmHg 80%
08:00 +10°C° 0 mm 4 mps 745 mmHg 75%
09:00 +12°C° 0 mm 4 mps 745 mmHg 70%
10:00 +13°C° 0 mm 5 mps 745 mmHg 65%
11:00 +14°C° 0 mm 5 mps 745 mmHg 65%
12:00 +14°C° 0 mm 5 mps 745 mmHg 64%
13:00 +14°C° 0 mm 4 mps 745 mmHg 64%
14:00 +14°C° 0 mm 4 mps 745 mmHg 67%
15:00 +13°C° 0 mm 3 mps 745 mmHg 70%
16:00 +13°C° 0 mm 2 mps 745 mmHg 73%
17:00 +13°C° 0 mm 2 mps 745 mmHg 74%
18:00 +13°C° 0 mm 2 mps 745 mmHg 76%
19:00 +12°C° 0 mm 2 mps 745 mmHg 77%
20:00 +12°C° 0 mm 2 mps 745 mmHg 77%
21:00 +12°C° 0 mm 2 mps 745 mmHg 77%
22:00 +12°C° 0 mm 2 mps 745 mmHg 77%
23:00 +10°C° 0 mm 2 mps 745 mmHg 78%
Show more